Regional Weather Roundup
Issued by NWS Boston, MA

Home | Current Version | Previous Version | Text Only | Print | Product List | Glossary On
Versions: 1 2 3 4 5 6 7 8 9 10 11 12 13 14 15 16 17 18 19 20 21 22 23 24 25 26 27 28 29 30 31 32 33 34 35 36 37 38 39 40 41 42 43 44 45 46 47 48 49 50
000
ASUS41 KBOX 032210
RWRBOX

REGIONAL WEATHER ROUNDUP
NATIONAL WEATHER SERVICE TAUNTON MA
600 PM EDT SUN MAY 03 2015

NOTE:  "FAIR" INDICATES FEW OR NO CLOUDS BELOW 12,000 FEET WITH NO
SIGNIFICANT WEATHER AND/OR OBSTRUCTIONS TO VISIBILITY.  THE FOLLOWING
OBSERVATION LOCATIONS DO NOT REPORT PRESENT WEATHER...PROVINCETOWN...
SMITHFIELD...BLOCK ISLAND...KEENE...AND OXFORD.

MAZALL-032300-
EASTERN MASSACHUSETTS

CITY           SKY/WX    TMP DP  RH WIND       PRES   REMARKS
BOSTON         PTSUNNY   66  44  45 S16       30.07R
BEVERLY        PTSUNNY   59  44  57 SE3       30.06S
LAWRENCE       PTSUNNY   70  43  37 S6        30.05S
BEDFORD        PTSUNNY   68  44  42 S14       30.04R
BLUE HILL        N/A     61  40  45 S8        30.07R
NORWOOD        MOSUNNY   60  40  47 S10       30.09R
MARSHFIELD     MOSUNNY   61  41  48 SW13G18   30.10R
PLYMOUTH       SUNNY     55  36  48 S10G20    30.12R
TAUNTON        MOSUNNY   58  40  51 S9        30.11R
NEW BEDFORD    SUNNY     55  35  47 S17       30.12R
$$

MAZALL-032300-
CAPE COD AND THE ISLANDS

CITY           SKY/WX    TMP DP  RH WIND       PRES   REMARKS
FALMOUTH       SUNNY     52  41  66 S17       30.11
HYANNIS        SUNNY     51  41  68 S13G20    30.12R
CHATHAM        SUNNY     50  39  66 SW12      30.14S
PROVINCETOWN   SUNNY     54  41  62 S15G22    30.11S
NANTUCKET      SUNNY     48  41  76 S8        30.15R
MARTHAS VNYRD  SUNNY    N/A N/A N/A SW13      30.14R
$$

MAZALL-032300-
CENTRAL AND WESTERN MASSACHUSETTS

CITY           SKY/WX    TMP DP  RH WIND       PRES   REMARKS
WORCESTER      CLOUDY    68  42  38 SE12      30.07R
FITCHBURG      MOSUNNY   73  39  29 S8        30.05R
ORANGE         PTSUNNY   73  36  25 SW7       30.03R
SPRINGFIELD    PTSUNNY   72  41  32 W15G24    30.04R
WESTFIELD      LGT RAIN  68  44  42 NE12G21   30.04R
NORTH ADAMS    MOSUNNY   74  37  26 W6        30.03S
PITTSFIELD     PTSUNNY   73  37  27 W13G22    30.04R
$$

RIZALL-032300-
RHODE ISLAND

CITY           SKY/WX    TMP DP  RH WIND       PRES   REMARKS
PROVIDENCE     MOSUNNY   55  42  61 SE14      30.11R
NEWPORT        SUNNY     52  38  58 S12G20    30.12R
BLOCK ISLAND   SUNNY     52  41  66 S17       30.13R
SMITHFIELD     MOSUNNY   55  37  50 SE9       30.09R
WESTERLY       MOSUNNY   51  42  71 S8        30.13R
$$

CTZALL-032300-
CONNECTICUT

CITY           SKY/WX    TMP DP  RH WIND       PRES   REMARKS
BRADLEY INTL   PTSUNNY   75  39  27 S13       30.03R
HARTFORD       MOSUNNY   73  40  30 S12G18    30.04R
BRIDGEPORT     PTSUNNY   65  45  48 S9        30.07R
DANBURY        PTSUNNY   71  41  33 S10       30.07R
GROTON         PTSUNNY   52  43  71 S9        30.11R
NEW HAVEN      MOSUNNY   62  47  57 S9        30.08R
CHESTER        NOT AVBL
MERIDEN        MOSUNNY   71  44  37 S8        30.07R
WILLIMANTIC    MOSUNNY   72  43  35 S14       30.06R
OXFORD         PTSUNNY   68  45  42 S12       30.07R
$$

MEZ002-015-021-024-NHZ003-005-008-011-012-014-VTZ005-008-032300-
NORTHERN NEW ENGLAND

CITY           SKY/WX    TMP DP  RH WIND       PRES   REMARKS
PORTLAND ME    MOSUNNY   58  44  60 S7        30.06S
BANGOR ME      MOSUNNY   61  43  51 S12       30.04R
CONCORD NH     MOSUNNY   77  33  20 W6        30.01S
MANCHESTER NH  MOSUNNY   74  34  23 S12       30.01S
NASHUA NH      MOSUNNY   75  35  23 S8        30.04R
PORTSMOUTH NH  MOSUNNY   64  45  49 SE7       30.03R
JAFFREY NH     CLOUDY    69  39  33 CALM      30.05R
KEENE NH       PTSUNNY   73  37  27 CALM      30.03R
BURLINGTON VT  PTSUNNY   75  36  24 SW7       29.99R
MT. WASHINGTON PTSUNNY   43  28  56 W15         N/A
$$

NYZ052-076-032300-
EASTERN NEW YORK

CITY           SKY/WX    TMP DP  RH WIND       PRES   REMARKS
ALBANY         PTSUNNY   76  38  25 SE8       30.01S
NEW YORK CITY  MOSUNNY   67  44  43 S15       30.07R
$$

ANZALL-032300-
MARINE OBSERVATIONS

STATION/POSITION TIME  TEMP    WIND        PRES    VSBY  WAVE
                       AIR SEA DIR/SP/G                  HT/PER
                 (UTC) (F)     (DEG/KT/KT) (MB)    (MI)  (FT/S)
BOSTON BUOY      2150   51 47  160/ 16/ 17   N/A           3/ 8
BUZZARDS BAY     2200          180/ 13/ 14   N/A
NANTUCKET SOUND  2150   49 47  190/ 12/ 12   N/A           1/ 3
MASS BAY-STELLWA 2104   50 47  160/ 14/ 17   N/A    1 7/8  5/ 8
ISLE OF SHOALS   2200   52     180/ 16/ 17   N/A
S OF BLOCK IS    2108      46                N/A           4/ 8
$$

......................KEY.........................
  SKY/WX - SKY CONDITION/PRESENT WEATHER
  TMP    - TEMPERATURE IN FAHRENHEIT
  DWPT   - DEWPOINT IN FAHRENHEIT
  RH     - RELATIVE HUMIDITY IN PERCENT
  WIND   - DIRECTION AND SPEED IN MPH
  PRES   - MEAN SEA LEVEL PRESSURE IN INCHES OF HG
  WCI    - WIND CHILL INDEX
  VSB    - VISIBILITY IN MILES
  HX     - HEAT INDEX
  TC     - TEMPERATURE IN CELSIUS
  VRB    - VARIABLE WIND DIRECTION
  N/A    - NOT AVAILABLE



USA.gov is the U.S. government's official web portal to all federal, state and local government web resources and services.